Volver al catálogo

FENGYUN 1C DEB

ActivoSSO
NORAD 30205·DEBRIS·🇨🇳 China

Lanzado May 10, 1999 desde Taiyuan Satellite Launch Center

Loading…

Próximos Pases (próximas 24 horas)

TLE

ActualizadoSource: Space-Track

Época: Sep 13, 2026, 20:59 UTC

1 30205U 99025VN  26256.87454586  .00000197  00000-0  18838-3 0  9991
2 30205  99.0132   3.5996 0121453 154.6060 331.0162 13.88219067994559

Sigue FENGYUN 1C DEB en tiempo real con AllMySat

Download on the App Store